Temp
18 18 19 19 19 20 20 20 20 20 21 21 21 21 22 22 22 20 23 24 23 23 22 22 22 23 24 25 25 26 27 28 29 28 29 29 27 28 28 27 29 29 28 29 25
16 16 16 17 18 19 20 20 20 20 21 21 21 21 22 22 21 22 24 23 24 23 22 24 25 24 26 25 25 26 27 28 29 29 29 29 28 28 28 28 29 30 31 29 28
14 14 15 15 16 17 18 18 19 20 20 21 21 21 21 22 23 27 24 23 23 22 23 24 25 25 25 26 26 27 26 29 29 28 28 27 27 28 26 27 29 30 30 30 29
14 14 14 14 15 15 16 17 18 18 20 20 21 21 21 21 26 24 24 23 22 21 22 23 25 25 25 25 27 24 27 26 27 27 25 26 27 27 26 27 28 29 29 29 28
14 14 14 15 15 15 15 16 17 17 18 19 20 20 20 24 26 24 23 23 21 21 23 25 25 26 25 27 26 23 25 26 26 26 24 25 25 26 26 28 29 28 28 28 28
14 14 14 14 15 15 16 16 17 18 19 19 20 19 20 23 23 23 21 21 21 21 24 24 26 26 25 25 25 26 24 25 25 25 25 24 25 26 27 28 28 28 28 29 29
14 14 14 14 15 15 16 16 17 18 19 20 20 18 21 24 20 18 20 19 19 21 23 23 23 24 25 24 25 23 23 25 26 27 25 23 23 25 28 28 28 27 28 28 28
14 14 14 15 15 15 16 16 17 18 18 19 19 15 22 20 18 19 18 18 18 19 20 20 21 23 23 23 23 22 24 23 27 25 24 23 24 27 27 26 26 27 27 27 28
13 14 14 14 15 16 16 17 17 16 17 17 16 18 24 19 19 17 18 20 19 19 19 19 21 23 22 22 23 25 23 25 25 26 24 22 23 25 26 25 25 26 26 26 26
14 14 14 13 14 15 16 17 16 16 16 15 16 20 20 22 17 16 16 19 20 19 20 21 22 22 23 24 23 25 25 26 25 26 24 24 24 25 26 26 26 26 27 26 25
14 13 13 13 14 15 17 16 19 20 18 22 22 23 24 17 17 17 17 18 20 21 21 21 21 22 25 25 25 24 24 23 24 26 24 23 23 24 25 26 27 27 26 25 23
14 14 14 13 14 15 16 19 16 14 18 21 20 20 19 18 20 18 16 20 20 21 21 20 20 24 25 21 22 23 22 23 24 25 22 22 22 23 25 26 26 24 24 22 21
14 14 15 14 14 15 15 14 14 13 17 21 18 18 19 18 20 20 18 20 20 21 20 22 24 23 22 22 22 22 22 22 22 23 22 22 22 25 26 26 24 23 22 20 17
13 13 13 14 14 15 16 13 13 12 19 21 19 18 17 18 18 15 16 19 20 20 22 21 21 20 20 20 22 21 23 22 21 20 21 21 21 24 26 26 23 20 18 16 15
13 12 12 13 15 16 13 13 12 12 19 20 18 16 17 18 17 16 15 18 19 20 19 22 19 18 19 20 21 22 19 20 19 19 19 21 20 24 25 24 22 18 16 15 14
13 13 12 12 13 13 13 13 12 19 18 20 18 18 18 18 17 16 17 18 17 19 19 20 18 19 21 20 19 18 19 20 19 19 19 22 23 23 25 24 19 16 14 13 13
11 12 11 12 15 13 13 15 18 16 20 20 19 19 19 19 17 17 18 18 20 20 21 21 20 19 18 19 18 18 19 19 20 20 19 23 20 23 24 19 19 16 13 13 12
11 11 11 11 12 13 13 15 14 17 19 18 18 18 18 19 18 18 19 20 21 19 20 20 20 20 18 19 20 20 20 19 18 19 21 16 19 22 17 15 14 13 12 11 11
11 11 10 11 12 12 15 13 15 19 19 19 18 18 19 18 18 19 20 19 19 19 19 19 20 18 17 18 19 19 18 17 15 15 16 19 21 23 15 14 13 12 12 10 10
10 9 10 12 11 12 13 13 16 18 17 17 17 19 19 19 18 18 17 18 17 17 18 18 16 19 17 16 17 18 18 14 13 13 14 19 20 21 22 17 13 11 11 10 10
8 8 10 11 11 12 11 13 16 17 16 16 17 17 18 17 17 16 17 18 18 18 17 16 15 17 18 17 17 17 16 16 17 16 15 15 18 20 17 15 13 11 9 9 9
10 11 9 10 11 13 13 15 15 15 15 16 15 15 15 16 16 16 16 17 17 17 15 16 13 12 16 18 18 16 16 17 15 13 16 15 14 20 13 12 10 9 8 8 7
11 12 8 9 11 12 14 14 14 14 15 15 15 15 16 15 14 15 16 16 15 15 14 14 11 11 13 16 13 14 16 15 16 14 13 13 14 15 11 9 9 9 8 7 7
10 10 10 9 12 13 13 13 14 14 13 14 14 15 15 14 15 14 15 14 12 13 11 12 13 12 12 14 15 13 13 13 11 11 12 13 15 16 14 12 12 10 9 8 7
8 10 10 9 10 11 13 14 13 13 13 13 13 14 14 13 14 14 15 14 13 11 12 12 10 11 12 12 13 12 11 12 12 12 11 12 12 13 13 13 12 11 9 8 7
7 8 7 10 11 11 11 11 11 12 12 12 12 13 13 11 12 11 11 11 11 12 11 12 9 10 8 10 10 10 11 11 11 12 12 12 12 14 13 8 8 8 7 7 7
3 4 6 8 8 10 11 11 11 12 9 9 10 10 10 10 8 8 8 8 8 8 8 9 8 7 7 9 9 8 9 10 11 12 12 10 9 5 8 7 7 7 7 7 7
Height
823 823 822 821 820 819 818 817 816 815 814 813 812 810 808 805 803 801 800 798 797 798 801 804 806 806 806 804 805 803 807 805 797 799 791 787 794 786 785 787 780 779 780 776 778
823 822 821 820 819 818 817 816 815 814 813 812 811 809 807 804 802 799 797 795 796 797 801 802 803 805 802 804 804 805 805 798 785 785 789 785 788 787 788 782 776 772 768 771 773
822 822 820 819 818 817 816 815 813 812 811 810 809 808 807 805 801 793 795 795 797 799 802 802 801 802 804 802 801 797 804 787 786 786 786 789 790 783 788 786 774 771 765 765 766
822 821 820 819 817 816 815 813 812 810 809 808 807 806 806 805 809 795 795 796 798 801 803 802 801 803 803 803 793 807 793 792 788 787 793 791 782 785 785 779 772 769 767 764 763
822 822 820 818 817 816 814 812 810 809 807 805 804 805 805 803 796 793 795 796 798 800 801 800 800 799 803 794 797 803 794 788 787 788 792 789 786 786 779 771 766 764 762 761 759
821 821 820 818 817 815 813 811 808 807 805 803 802 803 804 805 792 792 792 794 798 800 799 799 797 795 798 797 799 791 796 791 787 788 789 792 783 782 771 764 762 760 757 754 753
821 820 819 818 816 814 812 809 806 804 801 800 799 801 802 793 791 791 792 794 796 797 798 799 800 800 795 797 792 798 801 788 781 776 784 789 785 780 763 760 759 757 751 749 749
819 819 818 817 815 813 810 807 803 800 798 796 797 801 795 790 790 791 792 794 796 798 800 801 801 800 801 798 797 801 795 798 774 779 784 792 785 767 762 763 757 751 747 746 744
818 817 817 815 814 811 808 804 801 798 797 796 799 800 789 790 791 791 793 794 797 799 800 801 802 799 800 802 800 787 796 788 782 771 782 791 787 769 763 762 754 747 747 745 743
816 816 815 814 812 809 806 802 799 798 798 798 799 801 791 788 791 792 792 794 795 798 801 801 800 800 796 796 801 784 781 777 782 770 779 777 778 768 756 752 748 744 743 741 744
814 815 814 812 810 808 805 802 801 798 798 790 789 788 783 790 791 793 792 795 793 793 797 798 800 799 782 778 780 781 785 786 776 768 773 776 775 768 755 744 741 739 740 745 750
813 813 813 812 810 809 807 805 809 811 800 786 784 786 786 788 787 790 793 793 793 791 793 802 798 781 775 787 788 785 788 784 773 766 780 775 773 760 752 742 740 745 746 753 757
810 811 811 811 810 809 809 810 809 810 803 781 783 784 785 788 783 783 790 787 789 789 791 786 775 776 781 783 788 784 788 783 782 775 773 773 770 747 741 736 744 747 752 759 766
808 808 809 810 812 808 809 809 809 810 795 774 781 782 784 783 784 790 789 789 788 786 782 782 776 785 787 787 782 786 771 776 780 789 784 776 775 755 734 736 751 760 765 768 773
805 806 807 809 809 808 810 808 809 812 807 778 783 786 785 785 787 789 792 787 785 783 789 777 784 791 788 780 775 774 780 782 784 785 782 774 779 744 734 738 748 765 773 775 777
801 803 805 808 808 807 807 809 811 807 800 779 783 784 785 784 787 790 790 791 788 784 784 775 784 780 777 777 779 783 783 778 778 782 779 756 756 744 734 738 755 768 775 780 782
801 801 804 806 805 804 805 807 806 809 778 780 784 785 784 784 788 788 787 789 781 782 771 767 772 773 781 782 785 784 783 782 776 776 769 745 762 742 734 749 751 766 776 782 782
800 799 802 804 804 804 805 811 814 790 782 782 787 785 788 784 787 789 785 779 768 782 779 777 776 771 779 778 776 775 776 784 783 770 755 770 756 740 750 763 769 772 780 787 787
800 800 799 803 804 805 807 811 798 780 776 780 781 787 785 786 789 783 777 778 776 778 786 779 772 776 781 777 780 778 786 785 795 786 786 758 739 729 757 767 772 777 781 785 787
799 803 801 798 805 806 806 798 790 781 783 785 785 776 776 772 783 783 787 777 782 783 782 779 786 769 779 782 781 780 778 797 803 802 788 752 744 734 733 753 772 776 777 781 782
799 801 795 796 806 807 805 792 783 780 784 788 784 780 774 778 780 785 781 775 777 779 785 787 791 777 775 773 775 780 783 782 776 777 775 770 750 733 747 756 766 777 782 783 785
795 795 793 795 801 795 788 782 783 784 781 782 785 785 787 783 782 782 781 777 775 780 784 783 797 794 772 765 766 774 773 772 780 780 763 765 763 735 758 762 772 777 783 786 788
789 787 796 794 788 783 780 779 780 783 781 781 781 778 778 780 787 779 777 778 782 784 785 789 800 796 780 768 778 778 770 771 768 770 765 766 753 748 763 771 776 776 780 784 787
786 787 791 790 780 776 777 774 776 779 780 781 779 777 780 780 780 779 778 782 787 788 795 792 788 789 785 772 771 781 779 780 788 778 761 751 746 747 753 762 764 772 778 780 783
784 776 775 781 778 778 774 767 772 774 778 781 777 777 779 780 777 776 775 777 785 794 792 792 793 786 783 779 777 776 779 777 773 766 768 753 757 755 757 755 757 766 776 777 781
780 782 784 773 769 773 774 770 773 772 778 779 779 773 779 784 782 787 788 790 787 787 791 790 797 790 793 787 785 782 774 765 765 761 754 752 748 748 750 769 771 774 778 778 778
786 784 781 778 776 773 767 768 772 772 783 787 784 786 787 787 795 800 802 802 800 801 799 797 795 798 792 784 782 783 767 766 757 753 753 753 759 774 768 772 773 774 776 778 777
Wind_Speed
4 4 5 6 6 7 7 7 8 9 9 9 9 11 12 15 16 8 7 4 5 10 9 9 6 4 4 2 3 3 5 7 9 7 4 5 6 2 5 11 14 8 12 15 4
5 5 6 7 7 8 8 9 9 10 11 11 11 12 13 16 13 11 8 7 6 14 12 12 8 7 4 3 3 5 7 9 5 9 10 12 11 11 11 14 17 13 15 13 14
5 6 7 8 8 9 9 10 11 12 12 12 11 10 10 13 7 2 2 6 8 14 7 8 4 7 7 4 6 5 9 12 11 13 13 14 15 16 13 17 16 16 16 16 17
5 5 7 8 9 10 11 12 13 13 13 13 12 10 7 4 6 1 1 9 10 11 9 7 6 5 6 9 7 9 13 14 16 11 7 15 17 15 14 21 21 21 20 19 17
4 6 6 8 9 11 11 14 14 15 15 14 12 9 1 5 7 4 3 8 12 10 11 9 9 8 9 7 7 13 14 15 14 14 14 16 21 18 21 22 22 19 17 17 17
3 5 7 8 10 12 13 17 18 18 18 16 14 5 4 10 4 6 7 11 9 13 11 12 5 7 11 12 11 10 12 16 17 15 14 17 21 16 21 17 18 16 19 18 18
3 4 7 9 11 12 14 19 20 19 18 15 12 4 6 11 3 3 5 6 8 9 10 12 5 6 4 9 4 8 13 16 19 18 9 6 16 12 13 11 14 18 20 20 20
3 5 6 9 12 14 17 22 23 18 12 9 4 4 7 4 2 4 4 3 5 4 5 3 6 7 6 2 5 8 10 10 7 1 4 6 20 14 9 14 23 24 21 18 19
5 5 7 9 12 14 18 22 17 7 6 5 4 4 5 2 2 3 5 3 6 4 3 3 5 6 4 8 10 12 12 15 12 9 4 10 13 17 22 21 24 22 17 15 15
6 7 8 11 12 14 18 18 7 2 2 2 1 4 4 1 3 3 3 10 4 9 5 5 6 8 8 10 12 15 18 18 20 21 14 18 18 19 19 21 23 20 15 9 9
8 8 9 11 13 14 16 6 4 4 5 6 6 10 8 3 4 2 3 8 7 8 7 8 9 11 17 17 20 20 19 20 21 19 17 17 16 17 20 20 16 11 8 9 12
10 9 8 10 12 13 8 3 3 2 9 12 15 9 4 1 3 6 8 8 7 11 6 5 12 17 17 8 12 15 17 19 17 9 1 13 18 21 17 19 7 8 9 12 12
11 9 8 9 12 3 3 1 2 0 6 7 3 4 2 6 6 7 11 4 9 12 14 17 14 6 11 14 15 16 16 18 17 14 11 11 15 13 9 14 9 12 14 14 14
12 9 8 6 5 1 0 3 2 1 6 4 5 3 3 3 4 1 3 4 6 10 15 12 7 7 10 16 13 16 11 11 11 6 10 4 11 12 8 8 14 12 12 13 14
13 12 9 8 4 2 1 2 2 2 7 2 3 2 1 3 3 3 1 5 11 7 5 2 5 4 8 8 7 6 1 4 5 10 12 11 7 8 5 8 13 10 10 12 12
8 7 6 5 5 3 1 3 2 5 7 1 2 1 2 3 1 2 1 4 2 6 11 17 3 4 10 2 7 2 6 10 7 5 9 14 12 7 1 6 11 9 9 9 10
7 6 9 7 1 4 3 2 4 6 2 2 3 2 5 1 2 3 4 6 4 5 8 5 9 5 3 7 5 7 8 8 8 9 13 6 6 13 4 8 8 9 8 7 9
7 7 5 6 5 8 4 1 8 3 8 3 2 2 4 3 1 2 5 10 8 5 9 10 17 5 7 5 7 8 8 8 11 13 14 3 8 8 13 11 11 11 9 6 7
3 4 3 8 9 7 3 6 5 8 6 5 2 8 17 6 4 4 5 8 5 3 7 10 10 3 3 1 2 3 6 6 6 9 9 13 20 19 14 11 8 9 8 7 7
6 0 4 8 12 6 4 7 10 7 1 5 12 12 13 7 6 3 3 2 1 1 2 3 9 4 3 1 8 7 1 5 3 4 7 13 20 15 13 8 7 5 5 7 8
5 2 6 11 13 3 4 7 12 10 4 6 11 15 13 9 7 6 7 5 8 6 2 5 4 15 10 9 14 7 6 11 12 10 13 17 14 11 6 2 6 5 3 4 5
6 4 7 27 8 6 12 7 5 11 7 11 10 15 16 13 13 14 17 14 4 2 7 9 2 8 23 20 17 10 15 16 13 8 11 12 13 13 2 5 4 5 5 1 3
4 3 7 10 8 12 10 12 17 9 8 10 10 10 9 12 7 12 14 2 4 2 2 2 3 5 8 10 2 7 11 14 18 18 24 17 14 3 4 5 6 6 6 5 2
4 5 4 5 9 13 17 18 17 8 10 17 13 12 12 13 13 9 11 1 3 2 4 1 8 14 14 18 19 17 18 16 14 11 14 16 21 17 12 5 6 5 6 6 5
3 3 2 7 10 15 12 6 14 15 7 5 10 17 17 14 15 18 16 13 4 1 3 5 11 15 18 21 21 21 19 22 23 24 23 25 23 22 19 20 13 8 5 5 5
3 3 2 2 9 18 15 15 17 12 8 10 14 7 9 10 10 7 10 9 13 11 11 8 9 11 17 18 20 23 24 27 24 24 25 24 25 22 12 7 2 4 4 7 7
2 1 2 4 7 8 13 17 12 12 3 2 5 4 8 9 5 3 3 6 8 7 8 11 8 8 19 15 18 15 22 22 24 23 23 22 13 8 6 5 5 6 7 8 9
Wind_Direction
18 9 2 2 358 355 351 346 342 338 335 333 330 328 328 326 323 315 259 232 205 183 158 159 177 185 209 211 245 281 256 265 281 286 317 142 283 174 289 275 281 244 272 295 319
18 13 8 2 355 346 340 335 332 329 329 328 328 327 328 327 320 274 259 214 199 176 165 180 188 188 214 226 211 238 255 286 299 296 288 304 291 283 282 271 276 280 266 259 265
8 5 6 3 360 354 345 339 333 326 323 322 323 327 330 329 291 89 199 191 185 175 200 208 221 204 245 255 213 213 256 287 294 283 295 292 286 281 262 275 281 296 301 303 293
351 357 359 358 357 355 350 348 340 331 323 318 317 324 329 323 309 72 242 182 177 173 173 180 197 214 248 229 232 258 253 269 285 293 283 275 285 284 265 274 286 288 292 291 281
340 344 353 353 351 347 345 343 331 324 318 310 307 315 315 236 256 260 223 183 176 182 198 201 222 244 257 274 276 245 268 278 282 280 271 282 276 276 278 283 283 287 287 282 280
335 338 342 345 346 346 344 338 329 320 313 304 297 294 239 251 271 246 204 185 187 200 219 219 236 271 288 279 256 326 298 284 281 275 269 269 278 290 277 280 292 294 292 291 290
313 328 334 338 341 343 338 331 323 317 311 300 284 208 240 253 230 190 174 179 197 213 227 226 251 231 333 259 302 286 294 296 280 269 248 277 275 245 279 327 291 275 283 295 297
294 316 328 336 340 337 333 330 323 319 324 302 257 175 259 231 190 215 179 146 176 197 236 234 220 260 251 20 254 269 277 284 288 125 142 205 283 312 329 300 289 285 290 300 303
280 297 314 324 327 330 330 326 324 330 3 76 112 225 262 114 152 193 186 196 148 140 107 144 198 239 183 237 268 238 267 283 303 315 145 205 284 296 299 288 282 287 298 303 314
272 289 307 317 325 332 332 325 321 334 11 51 238 218 169 74 112 112 148 156 147 144 132 186 213 232 226 234 255 283 294 293 302 299 211 292 283 285 289 289 286 294 299 314 13
265 278 304 321 328 337 342 313 249 204 217 287 300 281 283 113 136 150 157 159 144 190 207 197 215 223 250 239 252 276 287 286 283 294 303 295 296 290 288 291 292 308 336 54 66
258 265 292 313 328 339 353 13 43 343 294 262 255 263 247 217 243 171 164 194 200 215 163 182 232 248 268 298 283 276 274 277 284 294 277 280 298 289 282 272 318 346 72 68 47
247 257 269 296 317 358 360 72 313 171 258 259 219 242 220 207 242 192 186 203 219 227 209 244 266 295 260 256 261 265 267 275 282 313 281 279 276 288 247 259 66 101 89 67 53
251 247 260 279 298 314 15 307 330 303 272 190 177 150 165 225 212 94 219 253 215 256 245 259 277 258 238 252 261 267 278 278 276 279 295 29 298 300 276 161 117 82 57 55 48
240 246 237 240 322 287 93 323 339 276 284 68 128 65 115 242 91 107 199 190 243 213 212 219 171 184 218 228 217 278 350 251 248 263 292 257 253 241 235 222 123 79 60 54 52
232 214 204 211 225 203 270 330 288 236 246 43 90 137 198 187 125 114 201 248 332 235 236 259 105 212 242 211 220 33 263 250 255 271 262 264 228 279 209 139 133 100 69 59 57
175 171 181 190 147 160 140 232 256 236 86 96 13 331 310 147 200 218 190 192 251 285 246 216 231 171 241 255 191 220 264 288 261 238 258 284 240 254 223 117 130 129 107 80 71
183 166 199 210 183 148 129 150 222 235 246 102 43 317 303 8 123 227 274 277 224 257 288 283 291 189 150 252 309 286 254 251 282 279 290 139 259 279 102 114 112 113 111 100 69
194 191 171 214 201 179 165 220 222 219 231 239 249 295 279 178 231 282 269 291 331 229 268 305 269 117 202 260 268 129 232 9 324 295 282 265 270 272 139 118 118 122 119 92 63
146 282 243 210 204 215 209 224 234 243 344 265 242 224 247 205 224 242 312 58 251 248 253 331 290 276 91 157 228 237 339 291 189 247 248 262 283 283 270 165 154 126 76 47 42
137 155 213 170 177 219 229 232 255 248 212 239 258 262 252 255 221 211 223 253 238 267 272 320 248 273 299 246 268 239 234 226 254 257 266 274 271 311 9 146 173 154 103 65 35
162 224 164 159 180 212 230 233 233 242 224 239 266 258 269 280 269 259 256 247 172 231 264 266 258 252 273 285 299 283 271 267 261 253 248 261 258 293 338 173 184 174 168 149 19
195 177 188 186 208 222 233 241 239 233 229 225 228 223 249 250 255 253 253 268 28 282 258 87 217 289 291 272 193 227 263 255 259 262 259 266 272 275 153 167 205 220 210 212 195
163 177 172 217 249 239 231 242 233 205 246 245 254 255 249 246 249 263 261 168 35 311 59 40 260 248 259 275 305 294 292 295 295 275 267 256 279 277 258 270 281 273 257 237 211
199 215 174 198 217 227 235 246 235 230 215 243 240 245 249 256 257 253 258 269 252 135 242 244 252 259 259 265 276 283 283 280 272 276 277 287 287 284 288 293 309 248 270 272 233
186 188 194 252 227 213 218 228 240 221 191 223 232 219 199 230 231 279 309 285 270 270 248 249 272 290 278 278 275 276 272 267 272 273 274 275 275 279 317 10 314 249 256 276 255
169 170 285 153 191 200 215 230 242 241 194 256 267 227 234 270 11 8 281 285 267 266 268 267 266 268 269 279 283 272 254 263 265 266 272 275 304 356 335 320 299 289 276 292 281